Time,TemperatureF,DewpointF,PressureIn,WindDirection,WindDirectionDegrees,WindSpeedMPH,WindSpeedGustMPH,Humidity,HourlyPrecipIn,Conditions,Clouds,dailyrainin,SoftwareType,DateUTC
2013-04-04 07:41:00,28.2,23.4,30.13,ENE,68,0.0,0.0,82,0.00,,---,0.00,VWS V14.00,2013-04-04 12:41:00,
2013-04-04 07:42:00,28.2,23.1,30.13,ENE,68,0.0,0.0,81,0.00,,---,0.00,VWS V14.00,2013-04-04 12:42:00,
2013-04-04 07:46:00,28.2,23.1,30.14,ENE,68,0.0,0.0,81,0.00,,---,0.00,VWS V14.00,2013-04-04 12:46:00,
2013-04-04 07:47:00,28.2,23.1,30.14,ENE,68,0.0,0.0,81,0.00,,---,0.00,VWS V14.00,2013-04-04 12:47:00,
2013-04-04 07:48:00,28.2,23.1,30.14,ENE,68,0.0,0.0,81,0.00,,---,0.00,VWS V14.00,2013-04-04 12:48:00,
2013-04-04 07:51:00,28.1,22.7,30.14,ENE,68,0.0,0.0,80,0.00,,---,0.00,VWS V14.00,2013-04-04 12:51:00,
2013-04-04 07:52:00,28.1,22.7,30.14,ENE,68,0.0,0.0,80,0.00,,---,0.00,VWS V14.00,2013-04-04 12:52:00,
2013-04-04 07:53:00,27.9,22.8,30.14,ENE,68,0.0,0.0,81,0.00,,---,0.00,VWS V14.00,2013-04-04 12:53:00,
2013-04-04 07:56:00,27.9,22.8,30.14,ENE,68,0.0,0.0,81,0.00,,---,0.00,VWS V14.00,2013-04-04 12:56:00,
2013-04-04 07:57:00,27.9,22.5,30.14,ENE,68,0.0,0.0,80,0.00,,---,0.00,VWS V14.00,2013-04-04 12:57:00,
2013-04-04 07:59:00,28.1,22.7,30.16,ENE,68,0.0,0.0,80,0.00,,---,0.00,VWS V14.00,2013-04-04 12:59:00,
2013-04-04 08:02:00,28.4,23.3,30.16,ENE,68,0.0,0.0,81,0.00,,---,0.00,VWS V14.00,2013-04-04 13:02:00,
2013-04-04 08:04:00,28.7,23.6,30.16,ENE,68,0.0,0.0,81,0.00,,---,0.00,VWS V14.00,2013-04-04 13:04:00,
2013-04-04 08:07:00,29.3,24.5,30.16,ENE,68,0.0,0.0,82,0.00,,---,0.00,VWS V14.00,2013-04-04 13:07:00,
2013-04-04 08:08:00,29.4,24.6,30.16,ENE,68,0.0,0.0,82,0.00,,---,0.00,VWS V14.00,2013-04-04 13:08:00,
2013-04-04 08:09:00,29.7,24.9,30.16,ENE,68,0.0,0.0,82,0.00,,---,0.00,VWS V14.00,2013-04-04 13:09:00,
2013-04-04 08:12:00,30.3,25.5,30.16,ENE,68,0.0,0.0,82,0.00,,---,0.00,VWS V14.00,2013-04-04 13:12:00,
2013-04-04 08:13:00,30.6,25.8,30.16,ENE,68,0.0,0.0,82,0.00,,---,0.00,VWS V14.00,2013-04-04 13:13:00,
2013-04-04 08:14:00,30.9,26.1,30.17,ENE,68,0.0,0.0,82,0.00,,---,0.00,VWS V14.00,2013-04-04 13:14:00,
2013-04-04 08:17:00,31.5,26.6,30.17,ENE,68,0.0,0.0,82,0.00,,---,0.00,VWS V14.00,2013-04-04 13:17:00,
2013-04-04 08:18:00,31.6,26.8,30.17,ENE,68,0.0,0.0,82,0.00,,---,0.00,VWS V14.00,2013-04-04 13:18:00,
2013-04-04 08:19:00,32.1,27.2,30.17,ENE,68,0.0,0.0,82,0.00,,---,0.00,VWS V14.00,2013-04-04 13:19:00,
2013-04-04 08:22:00,32.9,28.0,30.17,ENE,68,0.0,0.0,82,0.00,,---,0.00,VWS V14.00,2013-04-04 13:22:00,
2013-04-04 08:23:00,33.1,28.2,30.17,ENE,68,0.0,0.0,82,0.00,,---,0.00,VWS V14.00,2013-04-04 13:23:00,
2013-04-04 08:24:00,33.7,28.8,30.17,ENE,68,0.0,0.0,82,0.00,,---,0.00,VWS V14.00,2013-04-04 13:24:00,
2013-04-04 08:27:00,34.3,28.8,30.17,ENE,68,0.0,0.0,80,0.00,,---,0.00,VWS V14.00,2013-04-04 13:27:00,
2013-04-04 08:28:00,34.3,28.8,30.17,ENE,68,0.0,0.0,80,0.00,,---,0.00,VWS V14.00,2013-04-04 13:28:00,
2013-04-04 08:30:00,34.4,28.9,30.15,ENE,68,0.0,0.0,80,0.00,,---,0.00,VWS V14.00,2013-04-04 13:30:00,
2013-04-04 08:32:00,34.6,28.8,30.15,ENE,68,0.0,0.0,79,0.00,,---,0.00,VWS V14.00,2013-04-04 13:32:00,
2013-04-04 08:33:00,34.6,28.5,30.15,ENE,68,0.0,0.0,78,0.00,,---,0.00,VWS V14.00,2013-04-04 13:33:00,
2013-04-04 08:36:00,35.3,28.8,30.15,ENE,68,0.0,0.0,77,0.00,,---,0.00,VWS V14.00,2013-04-04 13:36:00,
2013-04-04 08:37:00,36.0,29.5,30.15,ENE,68,0.0,0.0,77,0.00,,---,0.00,VWS V14.00,2013-04-04 13:37:00,
2013-04-04 08:38:00,36.2,29.7,30.15,ENE,68,0.0,0.0,77,0.00,,---,0.00,VWS V14.00,2013-04-04 13:38:00,
2013-04-04 08:39:00,36.5,30.0,30.15,ENE,68,0.0,0.0,77,0.00,,---,0.00,VWS V14.00,2013-04-04 13:39:00,
2013-04-04 08:41:00,37.0,30.1,30.15,ENE,68,0.0,0.0,76,0.00,,---,0.00,VWS V14.00,2013-04-04 13:41:00,
2013-04-04 08:43:00,37.2,30.4,30.15,ENE,68,0.0,0.0,76,0.00,,---,0.00,VWS V14.00,2013-04-04 13:43:00,
2013-04-04 08:44:00,37.3,28.8,30.14,ENE,68,0.0,0.0,71,0.00,,---,0.00,VWS V14.00,2013-04-04 13:44:00,
2013-04-04 08:46:00,38.2,30.0,30.14,ENE,68,0.0,0.0,72,0.00,,---,0.00,VWS V14.00,2013-04-04 13:46:00,
2013-04-04 08:48:00,38.3,29.4,30.14,ENE,68,0.0,0.0,70,0.00,,---,0.00,VWS V14.00,2013-04-04 13:48:00,
2013-04-04 08:49:00,38.5,28.5,30.14,ENE,68,0.0,0.0,67,0.00,,---,0.00,VWS V14.00,2013-04-04 13:49:00,
2013-04-04 08:52:00,39.5,30.2,30.14,ENE,68,0.0,0.0,69,0.00,,---,0.00,VWS V14.00,2013-04-04 13:52:00,
2013-04-04 08:53:00,39.8,30.5,30.14,ENE,68,0.0,0.0,69,0.00,,---,0.00,VWS V14.00,2013-04-04 13:53:00,
2013-04-04 08:54:00,40.5,30.4,30.14,ENE,68,0.0,0.0,67,0.00,,---,0.00,VWS V14.00,2013-04-04 13:54:00,
2013-04-04 08:57:00,41.1,31.4,30.14,ENE,68,0.0,0.0,68,0.00,,---,0.00,VWS V14.00,2013-04-04 13:57:00,
2013-04-04 08:58:00,41.1,30.6,30.14,ENE,68,0.0,0.0,66,0.00,,---,0.00,VWS V14.00,2013-04-04 13:58:00,
2013-04-04 08:59:00,41.8,30.5,30.12,ENE,68,0.0,0.0,64,0.00,,---,0.00,VWS V14.00,2013-04-04 13:59:00,
2013-04-04 09:00:00,41.6,30.3,30.12,ENE,68,0.0,0.0,64,0.00,,---,0.00,VWS V14.00,2013-04-04 14:00:00,
2013-04-04 09:02:00,41.9,29.0,30.12,ENE,68,0.0,0.0,60,0.00,,---,0.00,VWS V14.00,2013-04-04 14:02:00,
2013-04-04 09:03:00,42.2,29.3,30.12,ENE,68,0.0,0.0,60,0.00,,---,0.00,VWS V14.00,2013-04-04 14:03:00,
2013-04-04 09:04:00,42.8,30.3,30.12,ENE,68,0.0,0.0,61,0.00,,---,0.00,VWS V14.00,2013-04-04 14:04:00,
2013-04-04 09:05:00,43.2,30.7,30.12,ENE,68,0.0,0.0,61,0.00,,---,0.00,VWS V14.00,2013-04-04 14:05:00,
2013-04-04 09:07:00,43.3,30.8,30.12,ENE,68,0.0,0.0,61,0.00,,---,0.00,VWS V14.00,2013-04-04 14:07:00,
2013-04-04 09:08:00,43.5,31.0,30.12,ENE,68,0.0,0.0,61,0.00,,---,0.00,VWS V14.00,2013-04-04 14:08:00,
2013-04-04 09:10:00,43.6,29.8,30.12,ENE,68,0.0,0.0,58,0.00,,---,0.00,VWS V14.00,2013-04-04 14:10:00,
2013-04-04 09:12:00,44.3,30.0,30.12,ENE,68,0.0,0.0,57,0.00,,---,0.00,VWS V14.00,2013-04-04 14:12:00,
2013-04-04 09:13:00,44.3,30.0,30.14,ENE,68,0.0,0.0,57,0.00,,---,0.00,VWS V14.00,2013-04-04 14:13:00,
2013-04-04 09:15:00,44.9,29.7,30.14,ENE,68,0.0,0.0,55,0.00,,---,0.00,VWS V14.00,2013-04-04 14:15:00,
2013-04-04 09:16:00,45.2,30.0,30.14,ENE,68,0.0,0.0,55,0.00,,---,0.00,VWS V14.00,2013-04-04 14:16:00,
2013-04-04 09:17:00,45.8,30.6,30.14,ENE,68,0.0,0.0,55,0.00,,---,0.00,VWS V14.00,2013-04-04 14:17:00,
2013-04-04 09:18:00,46.2,30.5,30.14,ENE,68,0.0,0.0,54,0.00,,---,0.00,VWS V14.00,2013-04-04 14:18:00,
2013-04-04 09:21:00,46.8,31.0,30.14,ENE,68,0.0,0.0,54,0.00,,---,0.00,VWS V14.00,2013-04-04 14:21:00,
2013-04-04 09:22:00,47.1,29.9,30.14,ENE,68,0.0,0.0,51,0.00,,---,0.00,VWS V14.00,2013-04-04 14:22:00,
2013-04-04 09:24:00,47.6,29.9,30.14,ENE,68,0.0,0.0,50,0.00,,---,0.00,VWS V14.00,2013-04-04 14:24:00,
2013-04-04 09:26:00,48.2,30.0,30.14,ENE,68,0.0,0.0,49,0.00,,---,0.00,VWS V14.00,2013-04-04 14:26:00,
2013-04-04 09:28:00,48.6,29.8,30.14,ENE,68,0.0,0.0,48,0.00,,---,0.00,VWS V14.00,2013-04-04 14:28:00,
2013-04-04 09:29:00,48.9,30.1,30.11,ENE,68,0.0,0.0,48,0.00,,---,0.00,VWS V14.00,2013-04-04 14:29:00,
2013-04-04 09:31:00,49.4,30.0,30.11,ENE,68,0.0,0.0,47,0.00,,---,0.00,VWS V14.00,2013-04-04 14:31:00,
2013-04-04 09:32:00,49.4,30.0,30.11,ENE,68,0.0,0.0,47,0.00,,---,0.00,VWS V14.00,2013-04-04 14:32:00,
2013-04-04 09:33:00,49.5,30.1,30.11,ENE,68,0.0,0.0,47,0.00,,---,0.00,VWS V14.00,2013-04-04 14:33:00,
2013-04-04 09:34:00,49.5,29.1,30.11,ENE,68,0.0,0.0,45,0.00,,---,0.00,VWS V14.00,2013-04-04 14:34:00,
2013-04-04 09:36:00,50.7,30.7,30.11,ENE,68,0.0,0.0,46,0.00,,---,0.00,VWS V14.00,2013-04-04 14:36:00,
2013-04-04 09:37:00,50.7,29.6,30.11,ENE,68,0.0,0.0,44,0.00,,---,0.00,VWS V14.00,2013-04-04 14:37:00,
2013-04-04 09:38:00,50.8,29.7,30.11,ENE,68,0.0,0.0,44,0.00,,---,0.00,VWS V14.00,2013-04-04 14:38:00,
2013-04-04 09:40:00,51.1,30.0,30.11,ENE,68,0.0,0.0,44,0.00,,---,0.00,VWS V14.00,2013-04-04 14:40:00,
2013-04-04 09:41:00,51.4,30.2,30.11,ENE,68,0.0,0.0,44,0.00,,---,0.00,VWS V14.00,2013-04-04 14:41:00,
2013-04-04 09:43:00,51.7,30.5,30.10,ENE,68,0.0,0.0,44,0.00,,---,0.00,VWS V14.00,2013-04-04 14:43:00,
2013-04-04 09:45:00,51.7,30.5,30.10,ENE,68,0.0,0.0,44,0.00,,---,0.00,VWS V14.00,2013-04-04 14:45:00,
2013-04-04 09:46:00,52.6,29.6,30.10,ENE,68,0.0,0.0,41,0.00,,---,0.00,VWS V14.00,2013-04-04 14:46:00,
2013-04-04 09:48:00,52.9,29.9,30.10,ENE,68,0.0,0.0,41,0.00,,---,0.00,VWS V14.00,2013-04-04 14:48:00,
2013-04-04 09:50:00,53.3,29.6,30.10,ENE,68,0.0,0.0,40,0.00,,---,0.00,VWS V14.00,2013-04-04 14:50:00,
2013-04-04 09:52:00,54.1,30.9,30.10,ENE,68,0.0,0.0,41,0.00,,---,0.00,VWS V14.00,2013-04-04 14:52:00,
2013-04-04 09:54:00,54.5,30.7,30.10,ENE,68,0.0,0.0,40,0.00,,---,0.00,VWS V14.00,2013-04-04 14:54:00,
2013-04-04 09:55:00,54.8,31.0,30.10,ENE,68,0.0,0.0,40,0.00,,---,0.00,VWS V14.00,2013-04-04 14:55:00,
2013-04-04 09:57:00,55.1,30.6,30.10,ENE,68,0.0,0.0,39,0.00,,---,0.00,VWS V14.00,2013-04-04 14:57:00,
2013-04-04 09:59:00,55.6,30.4,30.07,ENE,68,0.0,0.0,38,0.00,,---,0.00,VWS V14.00,2013-04-04 14:59:00,
2013-04-04 10:00:00,55.9,29.4,30.07,ENE,68,0.0,0.0,36,0.00,,---,0.00,VWS V14.00,2013-04-04 15:00:00,
2013-04-04 10:02:00,56.2,29.6,30.07,ENE,68,0.0,0.0,36,0.00,,---,0.00,VWS V14.00,2013-04-04 15:02:00,
2013-04-04 10:04:00,56.5,29.9,30.07,ENE,68,0.0,0.0,36,0.00,,---,0.00,VWS V14.00,2013-04-04 15:04:00,
2013-04-04 10:05:00,56.6,30.0,30.07,ENE,68,0.0,0.0,36,0.00,,---,0.00,VWS V14.00,2013-04-04 15:05:00,
2013-04-04 10:07:00,57.2,29.8,30.07,ENE,68,0.0,0.0,35,0.00,,---,0.00,VWS V14.00,2013-04-04 15:07:00,
2013-04-04 10:09:00,57.8,30.4,30.07,ENE,68,0.0,0.0,35,0.00,,---,0.00,VWS V14.00,2013-04-04 15:09:00,
2013-04-04 10:10:00,58.0,30.5,30.07,ENE,68,0.0,0.0,35,0.00,,---,0.00,VWS V14.00,2013-04-04 15:10:00,
2013-04-04 10:12:00,58.7,28.9,30.07,ENE,68,0.0,0.0,32,0.00,,---,0.00,VWS V14.00,2013-04-04 15:12:00,
2013-04-04 10:15:00,58.9,29.1,29.98,ENE,68,0.0,0.0,32,0.00,,---,0.00,VWS V14.00,2013-04-04 15:15:00,
2013-04-04 10:16:00,58.9,29.1,29.98,ENE,68,0.0,0.0,32,0.00,,---,0.00,VWS V14.00,2013-04-04 15:16:00,
2013-04-04 10:18:00,58.9,29.1,29.98,ENE,68,0.0,0.0,32,0.00,,---,0.00,VWS V14.00,2013-04-04 15:18:00,
2013-04-04 10:20:00,60.4,30.4,29.98,ENE,68,0.0,0.0,32,0.00,,---,0.00,VWS V14.00,2013-04-04 15:20:00,
2013-04-04 10:21:00,60.4,30.4,29.98,ENE,68,0.0,0.0,32,0.00,,---,0.00,VWS V14.00,2013-04-04 15:21:00,
2013-04-04 10:23:00,60.4,30.4,29.98,ENE,68,0.0,0.0,32,0.00,,---,0.00,VWS V14.00,2013-04-04 15:23:00,
2013-04-04 10:25:00,62.3,27.9,29.98,ENE,68,0.0,0.0,27,0.00,,---,0.00,VWS V14.00,2013-04-04 15:25:00,
2013-04-04 10:26:00,62.7,28.3,29.98,ENE,68,0.0,0.0,27,0.00,,---,0.00,VWS V14.00,2013-04-04 15:26:00,
2013-04-04 10:27:00,62.9,28.4,29.98,ENE,68,0.0,0.0,27,0.00,,---,0.00,VWS V14.00,2013-04-04 15:27:00,
2013-04-04 10:28:00,63.4,27.0,29.94,ENE,68,0.0,0.0,25,0.00,,---,0.00,VWS V14.00,2013-04-04 15:28:00,
2013-04-04 10:30:00,63.7,26.3,29.94,ENE,68,0.0,0.0,24,0.00,,---,0.00,VWS V14.00,2013-04-04 15:30:00,
2013-04-04 10:32:00,64.0,27.5,29.94,ENE,68,0.0,0.0,25,0.00,,---,0.00,VWS V14.00,2013-04-04 15:32:00,
2013-04-04 10:33:00,64.5,26.9,29.94,ENE,68,0.0,0.0,24,0.00,,---,0.00,VWS V14.00,2013-04-04 15:33:00,
2013-04-04 10:35:00,64.8,27.2,29.94,ENE,68,0.0,0.0,24,0.00,,---,0.00,VWS V14.00,2013-04-04 15:35:00,
2013-04-04 10:37:00,64.8,27.2,29.94,ENE,68,0.0,0.0,24,0.00,,---,0.00,VWS V14.00,2013-04-04 15:37:00,
2013-04-04 10:39:00,65.2,27.5,29.94,ENE,68,0.0,0.0,24,0.00,,---,0.00,VWS V14.00,2013-04-04 15:39:00,
2013-04-04 10:40:00,65.2,27.5,29.94,ENE,68,0.0,0.0,24,0.00,,---,0.00,VWS V14.00,2013-04-04 15:40:00,
2013-04-04 10:42:00,65.3,26.6,29.94,ENE,68,0.0,0.0,23,0.00,,---,0.00,VWS V14.00,2013-04-04 15:42:00,
2013-04-04 10:45:00,65.8,27.0,29.92,ENE,68,0.0,0.0,23,0.00,,---,0.00,VWS V14.00,2013-04-04 15:45:00,
2013-04-04 10:47:00,66.1,25.1,29.92,NE,42,2.0,7.0,21,0.00,,---,0.00,VWS V14.00,2013-04-04 15:47:00,
2013-04-04 10:50:00,66.6,27.7,29.92,NE,41,1.0,7.0,23,0.00,,---,0.00,VWS V14.00,2013-04-04 15:50:00,
2013-04-04 10:52:00,66.8,24.5,29.92,NNE,31,7.0,8.0,20,0.00,,---,0.00,VWS V14.00,2013-04-04 15:52:00,
2013-04-04 10:53:00,66.8,24.5,29.92,NNE,31,1.0,8.0,20,0.00,,---,0.00,VWS V14.00,2013-04-04 15:53:00,
2013-04-04 10:55:00,66.9,25.7,29.92,NNE,31,5.0,8.0,21,0.00,,---,0.00,VWS V14.00,2013-04-04 15:55:00,
2013-04-04 10:57:00,66.9,25.7,29.92,WNW,288,16.0,16.0,21,0.00,,---,0.00,VWS V14.00,2013-04-04 15:57:00,
2013-04-04 10:58:00,66.8,24.5,29.92,WNW,292,0.0,16.0,20,0.00,,---,0.00,VWS V14.00,2013-04-04 15:58:00,
2013-04-04 11:00:00,66.8,23.2,29.90,WNW,289,6.0,6.0,19,0.00,,---,0.00,VWS V14.00,2013-04-04 16:00:00,
2013-04-04 11:02:00,67.3,23.7,29.90,WNW,287,4.0,10.0,19,0.00,,---,0.00,VWS V14.00,2013-04-04 16:02:00,
2013-04-04 11:03:00,67.3,23.7,29.90,WNW,284,13.0,13.0,19,0.00,,---,0.00,VWS V14.00,2013-04-04 16:03:00,
2013-04-04 11:05:00,67.4,23.7,29.90,NW,320,8.0,16.0,19,0.00,,---,0.00,VWS V14.00,2013-04-04 16:05:00,
2013-04-04 11:08:00,67.8,24.1,29.90,NNW,330,0.0,16.0,19,0.00,,---,0.00,VWS V14.00,2013-04-04 16:08:00,
2013-04-04 11:10:00,68.3,24.5,29.90,NW,320,2.0,16.0,19,0.00,,---,0.00,VWS V14.00,2013-04-04 16:10:00,
2013-04-04 11:13:00,68.1,25.5,29.90,NW,305,9.0,16.0,20,0.00,,---,0.00,VWS V14.00,2013-04-04 16:13:00,
2013-04-04 11:15:00,67.9,24.1,30.04,NW,318,10.0,16.0,19,0.00,,---,0.00,VWS V14.00,2013-04-04 16:15:00,
2013-04-04 11:18:00,67.8,22.8,30.04,NNW,344,10.0,16.0,18,0.00,,---,0.00,VWS V14.00,2013-04-04 16:18:00,
2013-04-04 11:21:00,67.9,22.9,30.04,NNW,346,10.0,16.0,18,0.00,,---,0.00,VWS V14.00,2013-04-04 16:21:00,
2013-04-04 11:22:00,68.1,24.3,30.04,North,352,5.0,16.0,19,0.00,,---,0.00,VWS V14.00,2013-04-04 16:22:00,
2013-04-04 11:23:00,68.1,23.0,30.04,North,0,8.0,16.0,18,0.00,,---,0.00,VWS V14.00,2013-04-04 16:23:00,
2013-04-04 11:26:00,67.8,21.4,30.04,NNE,16,6.0,16.0,17,0.00,,---,0.00,VWS V14.00,2013-04-04 16:26:00,
2013-04-04 11:27:00,68.3,24.5,30.04,North,0,9.0,16.0,19,0.00,,---,0.00,VWS V14.00,2013-04-04 16:27:00,
2013-04-04 11:28:00,68.3,24.5,30.05,WNW,302,8.0,16.0,19,0.00,,---,0.00,VWS V14.00,2013-04-04 16:28:00,
2013-04-04 11:31:00,68.4,24.6,30.05,NNW,346,7.0,7.0,19,0.00,,---,0.00,VWS V14.00,2013-04-04 16:31:00,
2013-04-04 11:32:00,68.4,24.6,30.05,NNW,346,7.0,7.0,19,0.00,,---,0.00,VWS V14.00,2013-04-04 16:32:00,
2013-04-04 11:33:00,68.1,24.3,30.05,North,349,11.0,11.0,19,0.00,,---,0.00,VWS V14.00,2013-04-04 16:33:00,
2013-04-04 11:37:00,68.1,24.3,30.05,North,354,12.0,17.0,19,0.00,,---,0.00,VWS V14.00,2013-04-04 16:37:00,
2013-04-04 11:38:00,67.9,21.5,30.05,North,353,7.0,17.0,17,0.00,,---,0.00,VWS V14.00,2013-04-04 16:38:00,
2013-04-04 11:42:00,67.9,21.5,30.05,North,359,10.0,17.0,17,0.00,,---,0.00,VWS V14.00,2013-04-04 16:42:00,
2013-04-04 11:44:00,67.9,21.5,30.05,NNW,340,10.0,17.0,17,0.00,,---,0.00,VWS V14.00,2013-04-04 16:44:00,
2013-04-04 11:47:00,67.9,21.5,30.05,North,353,7.0,17.0,17,0.00,,---,0.00,VWS V14.00,2013-04-04 16:47:00,
2013-04-04 11:48:00,67.9,21.5,30.05,NNW,346,7.0,17.0,17,0.00,,---,0.00,VWS V14.00,2013-04-04 16:48:00,
2013-04-04 11:49:00,67.9,21.5,30.05,NNW,346,7.0,17.0,17,0.00,,---,0.00,VWS V14.00,2013-04-04 16:49:00,
2013-04-04 11:52:00,68.3,20.4,30.05,NNW,336,14.0,17.0,16,0.00,,---,0.00,VWS V14.00,2013-04-04 16:52:00,
2013-04-04 11:53:00,68.1,20.2,30.05,NNW,343,8.0,17.0,16,0.00,,---,0.00,VWS V14.00,2013-04-04 16:53:00,
2013-04-04 11:54:00,67.9,20.1,30.05,NNW,333,13.0,17.0,16,0.00,,---,0.00,VWS V14.00,2013-04-04 16:54:00,
2013-04-04 11:55:00,67.9,20.1,30.05,North,353,8.0,17.0,16,0.00,,---,0.00,VWS V14.00,2013-04-04 16:55:00,
2013-04-04 11:57:00,68.3,20.4,30.05,NNW,343,14.0,17.0,16,0.00,,---,0.00,VWS V14.00,2013-04-04 16:57:00,
2013-04-04 11:58:00,68.6,20.6,30.05,NNW,346,14.0,17.0,16,0.00,,---,0.00,VWS V14.00,2013-04-04 16:58:00,
2013-04-04 12:00:00,68.4,21.9,30.05,NNW,340,13.0,13.0,17,0.00,,---,0.00,VWS V14.00,2013-04-04 17:00:00,
2013-04-04 12:01:00,68.1,21.7,30.05,NNW,346,8.0,19.0,17,0.00,,---,0.00,VWS V14.00,2013-04-04 17:01:00,
2013-04-04 12:02:00,68.1,21.7,30.05,NNW,346,5.0,19.0,17,0.00,,---,0.00,VWS V14.00,2013-04-04 17:02:00,
2013-04-04 12:03:00,68.4,21.9,30.05,NNW,337,3.0,19.0,17,0.00,,---,0.00,VWS V14.00,2013-04-04 17:03:00,
2013-04-04 12:05:00,68.9,22.3,30.05,North,353,13.0,19.0,17,0.00,,---,0.00,VWS V14.00,2013-04-04 17:05:00,
2013-04-04 12:06:00,68.9,19.4,30.05,NNW,346,11.0,19.0,15,0.00,,---,0.00,VWS V14.00,2013-04-04 17:06:00,
2013-04-04 12:08:00,68.8,19.3,30.05,NNW,335,7.0,19.0,15,0.00,,---,0.00,VWS V14.00,2013-04-04 17:08:00,
2013-04-04 12:09:00,68.8,20.8,30.05,NNW,343,6.0,19.0,16,0.00,,---,0.00,VWS V14.00,2013-04-04 17:09:00,
2013-04-04 12:10:00,68.6,22.1,30.05,NW,318,10.0,19.0,17,0.00,,---,0.00,VWS V14.00,2013-04-04 17:10:00,
2013-04-04 12:13:00,68.4,21.9,30.06,North,353,0.0,19.0,17,0.00,,---,0.00,VWS V14.00,2013-04-04 17:13:00,
2013-04-04 12:14:00,68.6,22.1,30.06,North,353,0.0,19.0,17,0.00,,---,0.00,VWS V14.00,2013-04-04 17:14:00,
2013-04-04 12:15:00,68.8,22.2,30.06,North,352,11.0,19.0,17,0.00,,---,0.00,VWS V14.00,2013-04-04 17:15:00,
2013-04-04 12:18:00,68.9,22.3,30.06,NW,312,8.0,19.0,17,0.00,,---,0.00,VWS V14.00,2013-04-04 17:18:00,
2013-04-04 12:19:00,68.9,22.3,30.06,NW,311,10.0,19.0,17,0.00,,---,0.00,VWS V14.00,2013-04-04 17:19:00,
2013-04-04 12:20:00,68.6,23.4,30.06,NW,312,7.0,19.0,18,0.00,,---,0.00,VWS V14.00,2013-04-04 17:20:00,
2013-04-04 12:24:00,68.6,23.4,30.06,NW,306,0.0,19.0,18,0.00,,---,0.00,VWS V14.00,2013-04-04 17:24:00,
2013-04-04 12:25:00,68.6,22.1,30.06,NW,306,0.0,19.0,17,0.00,,---,0.00,VWS V14.00,2013-04-04 17:25:00,
2013-04-04 12:29:00,68.9,23.7,30.05,North,349,5.0,19.0,18,0.00,,---,0.00,VWS V14.00,2013-04-04 17:29:00,
2013-04-04 12:30:00,69.1,23.9,30.05,NNW,344,10.0,13.0,18,0.00,,---,0.00,VWS V14.00,2013-04-04 17:30:00,
2013-04-04 12:35:00,69.1,22.5,30.05,WNW,296,3.0,13.0,17,0.00,,---,0.00,VWS V14.00,2013-04-04 17:35:00,
2013-04-04 12:40:00,69.6,22.9,30.05,WNW,292,8.0,13.0,17,0.00,,---,0.00,VWS V14.00,2013-04-04 17:40:00,
2013-04-04 12:41:00,69.6,21.5,30.05,West,274,5.0,13.0,16,0.00,,---,0.00,VWS V14.00,2013-04-04 17:41:00,
2013-04-04 12:45:00,70.4,23.5,30.05,NW,318,0.0,13.0,17,0.00,,---,0.00,VWS V14.00,2013-04-04 17:45:00,
2013-04-04 12:46:00,70.6,23.7,30.05,NW,318,0.0,13.0,17,0.00,,---,0.00,VWS V14.00,2013-04-04 17:46:00,
2013-04-04 12:47:00,70.4,23.5,30.05,NW,311,0.0,13.0,17,0.00,,---,0.00,VWS V14.00,2013-04-04 17:47:00,
2013-04-04 12:51:00,69.8,23.1,30.05,NW,311,16.0,17.0,17,0.00,,---,0.00,VWS V14.00,2013-04-04 17:51:00,
2013-04-04 12:52:00,69.9,24.5,30.05,NNW,346,5.0,17.0,18,0.00,,---,0.00,VWS V14.00,2013-04-04 17:52:00,
2013-04-04 12:56:00,70.4,24.9,30.05,WNW,291,6.0,17.0,18,0.00,,---,0.00,VWS V14.00,2013-04-04 17:56:00,
2013-04-04 12:57:00,70.4,24.9,30.05,WNW,302,10.0,17.0,18,0.00,,---,0.00,VWS V14.00,2013-04-04 17:57:00,
2013-04-04 13:01:00,70.6,23.7,30.05,NW,322,0.0,7.0,17,0.00,,---,0.00,VWS V14.00,2013-04-04 18:01:00,
2013-04-04 13:02:00,70.4,23.5,30.05,NW,322,0.0,7.0,17,0.00,,---,0.00,VWS V14.00,2013-04-04 18:02:00,
2013-04-04 13:06:00,70.4,23.5,30.05,NW,320,0.0,7.0,17,0.00,,---,0.00,VWS V14.00,2013-04-04 18:06:00,
2013-04-04 13:07:00,70.6,23.7,30.05,NW,308,0.0,9.0,17,0.00,,---,0.00,VWS V14.00,2013-04-04 18:07:00,
2013-04-04 13:11:00,70.6,22.3,30.05,WNW,301,1.0,14.0,16,0.00,,---,0.00,VWS V14.00,2013-04-04 18:11:00,
2013-04-04 13:12:00,70.4,22.1,30.05,WNW,301,0.0,14.0,16,0.00,,---,0.00,VWS V14.00,2013-04-04 18:12:00,
2013-04-04 13:17:00,70.3,23.5,30.06,WNW,294,6.0,14.0,17,0.00,,---,0.00,VWS V14.00,2013-04-04 18:17:00,
2013-04-04 13:18:00,70.3,22.0,30.06,WNW,296,6.0,14.0,16,0.00,,---,0.00,VWS V14.00,2013-04-04 18:18:00,
2013-04-04 13:22:00,70.3,22.0,30.06,North,352,8.0,22.0,16,0.00,,---,0.00,VWS V14.00,2013-04-04 18:22:00,
2013-04-04 13:23:00,70.3,22.0,30.06,North,359,11.0,22.0,16,0.00,,---,0.00,VWS V14.00,2013-04-04 18:23:00,
2013-04-04 13:27:00,69.9,21.7,30.06,NW,319,0.0,22.0,16,0.00,,---,0.00,VWS V14.00,2013-04-04 18:27:00,
2013-04-04 13:28:00,70.1,21.9,30.05,NW,319,0.0,22.0,16,0.00,,---,0.00,VWS V14.00,2013-04-04 18:28:00,
2013-04-04 13:32:00,70.9,22.5,30.05,NW,306,7.0,13.0,16,0.00,,---,0.00,VWS V14.00,2013-04-04 18:32:00,
2013-04-04 13:33:00,70.9,22.5,30.05,NW,306,10.0,13.0,16,0.00,,---,0.00,VWS V14.00,2013-04-04 18:33:00,
2013-04-04 13:37:00,70.8,20.9,30.05,WNW,296,5.0,13.0,15,0.00,,---,0.00,VWS V14.00,2013-04-04 18:37:00,
2013-04-04 13:38:00,70.6,20.7,30.05,WNW,296,4.0,13.0,15,0.00,,---,0.00,VWS V14.00,2013-04-04 18:38:00,
2013-04-04 13:43:00,70.6,20.7,30.05,WNW,296,0.0,13.0,15,0.00,,---,0.00,VWS V14.00,2013-04-04 18:43:00,
2013-04-04 13:48:00,71.1,21.1,30.04,WNW,298,0.0,13.0,15,0.00,,---,0.00,VWS V14.00,2013-04-04 18:48:00,
2013-04-04 13:53:00,72.1,21.9,30.04,NW,320,0.0,13.0,15,0.00,,---,0.00,VWS V14.00,2013-04-04 18:53:00,
2013-04-04 13:54:00,72.3,22.1,30.04,NW,304,9.0,13.0,15,0.00,,---,0.00,VWS V14.00,2013-04-04 18:54:00,
2013-04-04 13:58:00,70.9,21.0,30.04,West,275,5.0,13.0,15,0.00,,---,0.00,VWS V14.00,2013-04-04 18:58:00,
2013-04-04 13:59:00,70.8,20.9,30.03,West,277,5.0,5.0,15,0.00,,---,0.00,VWS V14.00,2013-04-04 18:59:00,
2013-04-04 14:03:00,70.9,19.4,30.03,West,278,0.0,5.0,14,0.00,,---,0.00,VWS V14.00,2013-04-04 19:03:00,
2013-04-04 14:04:00,71.1,19.5,30.03,West,274,0.0,5.0,14,0.00,,---,0.00,VWS V14.00,2013-04-04 19:04:00,
2013-04-04 14:08:00,71.5,21.5,30.03,West,275,0.0,5.0,15,0.00,,---,0.00,VWS V14.00,2013-04-04 19:08:00,
2013-04-04 14:09:00,71.6,19.9,30.03,WNW,295,0.0,10.0,14,0.00,,---,0.00,VWS V14.00,2013-04-04 19:09:00,
2013-04-04 14:10:00,71.5,19.8,30.03,WNW,295,0.0,10.0,14,0.00,,---,0.00,VWS V14.00,2013-04-04 19:10:00,
2013-04-04 14:13:00,72.5,20.6,30.03,WNW,296,0.0,10.0,14,0.00,,---,0.00,VWS V14.00,2013-04-04 19:13:00,
2013-04-04 14:14:00,72.7,20.8,30.03,WNW,296,0.0,10.0,14,0.00,,---,0.00,VWS V14.00,2013-04-04 19:14:00,
2013-04-04 14:15:00,72.5,18.9,30.03,WNW,296,0.0,10.0,13,0.00,,---,0.00,VWS V14.00,2013-04-04 19:15:00,
2013-04-04 14:18:00,72.8,20.9,30.03,WNW,296,0.0,10.0,14,0.00,,---,0.00,VWS V14.00,2013-04-04 19:18:00,
2013-04-04 14:19:00,72.8,19.1,30.03,WNW,287,10.0,10.0,13,0.00,,---,0.00,VWS V14.00,2013-04-04 19:19:00,
2013-04-04 14:20:00,72.5,18.9,30.03,WNW,285,0.0,10.0,13,0.00,,---,0.00,VWS V14.00,2013-04-04 19:20:00,
2013-04-04 14:23:00,72.8,19.1,30.03,WNW,285,0.0,10.0,13,0.00,,---,0.00,VWS V14.00,2013-04-04 19:23:00,
2013-04-04 14:24:00,72.8,19.1,30.03,WNW,284,0.0,10.0,13,0.00,,---,0.00,VWS V14.00,2013-04-04 19:24:00,
2013-04-04 14:25:00,73.0,19.3,30.03,West,275,0.0,10.0,13,0.00,,---,0.00,VWS V14.00,2013-04-04 19:25:00,
2013-04-04 14:28:00,73.3,19.5,30.02,NE,45,0.0,10.0,13,0.00,,---,0.00,VWS V14.00,2013-04-04 19:28:00,
2013-04-04 14:30:00,73.0,19.3,30.02,NE,35,0.0,0.0,13,0.00,,---,0.00,VWS V14.00,2013-04-04 19:30:00,
2013-04-04 14:34:00,72.3,25.1,30.02,North,8,0.0,0.0,17,0.00,,---,0.00,VWS V14.00,2013-04-04 19:34:00,
2013-04-04 14:35:00,72.1,24.9,30.02,North,0,0.0,0.0,17,0.00,,---,0.00,VWS V14.00,2013-04-04 19:35:00,
2013-04-04 14:36:00,71.8,24.7,30.02,North,349,0.0,0.0,17,0.00,,---,0.00,VWS V14.00,2013-04-04 19:36:00,
2013-04-04 14:39:00,71.8,21.7,30.02,NNW,344,0.0,0.0,15,0.00,,---,0.00,VWS V14.00,2013-04-04 19:39:00,
2013-04-04 14:40:00,71.6,21.5,30.02,NNW,339,5.0,12.0,15,0.00,,---,0.00,VWS V14.00,2013-04-04 19:40:00,
2013-04-04 14:41:00,72.0,23.4,30.02,NNW,335,0.0,12.0,16,0.00,,---,0.00,VWS V14.00,2013-04-04 19:41:00,
2013-04-04 14:44:00,72.7,24.0,30.01,NNW,328,9.0,12.0,16,0.00,,---,0.00,VWS V14.00,2013-04-04 19:44:00,
2013-04-04 14:45:00,72.7,20.8,30.01,NNW,339,11.0,12.0,14,0.00,,---,0.00,VWS V14.00,2013-04-04 19:45:00,
2013-04-04 14:46:00,72.7,20.8,30.01,North,354,5.0,12.0,14,0.00,,---,0.00,VWS V14.00,2013-04-04 19:46:00,
2013-04-04 14:49:00,72.1,20.3,30.01,NNW,332,5.0,12.0,14,0.00,,---,0.00,VWS V14.00,2013-04-04 19:49:00,
2013-04-04 14:50:00,72.1,21.9,30.01,North,0,6.0,12.0,15,0.00,,---,0.00,VWS V14.00,2013-04-04 19:50:00,
2013-04-04 14:51:00,72.3,22.1,30.01,North,356,6.0,12.0,15,0.00,,---,0.00,VWS V14.00,2013-04-04 19:51:00,
2013-04-04 14:54:00,72.3,23.6,30.01,North,359,5.0,14.0,16,0.00,,---,0.00,VWS V14.00,2013-04-04 19:54:00,
2013-04-04 14:55:00,72.1,23.5,30.01,NNW,339,8.0,14.0,16,0.00,,---,0.00,VWS V14.00,2013-04-04 19:55:00,
2013-04-04 14:57:00,72.1,24.9,30.01,NNW,337,5.0,14.0,17,0.00,,---,0.00,VWS V14.00,2013-04-04 19:57:00,
2013-04-04 15:00:00,71.8,23.2,30.01,NNW,339,7.0,7.0,16,0.00,,---,0.00,VWS V14.00,2013-04-04 20:00:00,
2013-04-04 15:01:00,71.8,23.2,30.01,NNW,339,7.0,7.0,16,0.00,,---,0.00,VWS V14.00,2013-04-04 20:01:00,
2013-04-04 15:02:00,71.8,23.2,30.01,NNW,339,7.0,7.0,16,0.00,,---,0.00,VWS V14.00,2013-04-04 20:02:00,
2013-04-04 15:05:00,71.8,23.2,30.01,NNW,339,7.0,7.0,16,0.00,,---,0.00,VWS V14.00,2013-04-04 20:05:00,
2013-04-04 15:06:00,71.8,23.2,30.01,NNW,339,7.0,7.0,16,0.00,,---,0.00,VWS V14.00,2013-04-04 20:06:00,
2013-04-04 15:07:00,71.8,23.2,30.01,NNW,339,7.0,7.0,16,0.00,,---,0.00,VWS V14.00,2013-04-04 20:07:00,
2013-04-04 15:10:00,71.8,23.2,30.01,NNW,339,7.0,7.0,16,0.00,,---,0.00,VWS V14.00,2013-04-04 20:10:00,
2013-04-04 15:11:00,71.8,23.2,30.01,NNW,339,7.0,7.0,16,0.00,,---,0.00,VWS V14.00,2013-04-04 20:11:00,
2013-04-04 15:12:00,71.8,23.2,30.01,NNW,339,7.0,7.0,16,0.00,,---,0.00,VWS V14.00,2013-04-04 20:12:00,
2013-04-04 15:15:00,71.8,23.2,30.21,NNW,339,7.0,7.0,16,0.00,,---,0.00,VWS V14.00,2013-04-04 20:15:00,
2013-04-04 15:16:00,71.8,23.2,30.21,NNW,339,7.0,7.0,16,0.00,,---,0.00,VWS V14.00,2013-04-04 20:16:00,
2013-04-04 15:17:00,71.8,23.2,30.21,NNW,339,7.0,7.0,16,0.00,,---,0.00,VWS V14.00,2013-04-04 20:17:00,
2013-04-04 15:21:00,71.8,23.2,30.21,NNW,339,7.0,7.0,16,0.00,,---,0.00,VWS V14.00,2013-04-04 20:21:00,
2013-04-04 15:22:00,71.8,23.2,30.21,NNW,339,7.0,7.0,16,0.00,,---,0.00,VWS V14.00,2013-04-04 20:22:00,
2013-04-04 15:23:00,71.8,23.2,30.21,NNW,339,7.0,7.0,16,0.00,,---,0.00,VWS V14.00,2013-04-04 20:23:00,
2013-04-04 15:26:00,72.8,24.0,30.21,North,11,0.0,7.0,16,0.00,,---,0.00,VWS V14.00,2013-04-04 20:26:00,
2013-04-04 15:27:00,72.8,24.0,30.21,NNW,340,6.0,10.0,16,0.00,,---,0.00,VWS V14.00,2013-04-04 20:27:00,
2013-04-04 15:29:00,72.8,22.5,29.99,North,0,10.0,10.0,15,0.00,,---,0.00,VWS V14.00,2013-04-04 20:29:00,
2013-04-04 15:31:00,72.8,24.0,29.99,North,359,2.0,10.0,16,0.00,,---,0.00,VWS V14.00,2013-04-04 20:31:00,
2013-04-04 15:32:00,72.8,24.0,29.99,NE,41,8.0,10.0,16,0.00,,---,0.00,VWS V14.00,2013-04-04 20:32:00,
2013-04-04 15:33:00,72.8,24.0,29.99,NE,41,0.0,10.0,16,0.00,,---,0.00,VWS V14.00,2013-04-04 20:33:00,
2013-04-04 15:35:00,73.0,24.2,29.99,NNE,25,12.0,12.0,16,0.00,,---,0.00,VWS V14.00,2013-04-04 20:35:00,
2013-04-04 15:36:00,72.7,24.0,29.99,NE,56,6.0,12.0,16,0.00,,---,0.00,VWS V14.00,2013-04-04 20:36:00,
2013-04-04 15:37:00,72.8,25.5,29.99,NNE,14,12.0,13.0,17,0.00,,---,0.00,VWS V14.00,2013-04-04 20:37:00,
2013-04-04 15:38:00,73.0,25.6,29.99,NNE,27,8.0,13.0,17,0.00,,---,0.00,VWS V14.00,2013-04-04 20:38:00,
2013-04-04 15:40:00,73.3,19.5,29.99,NNE,23,6.0,13.0,13,0.00,,---,0.00,VWS V14.00,2013-04-04 20:40:00,
2013-04-04 15:41:00,73.2,19.5,29.99,North,0,6.0,13.0,13,0.00,,---,0.00,VWS V14.00,2013-04-04 20:41:00,
2013-04-04 15:42:00,73.2,17.6,29.99,NNW,335,4.0,13.0,12,0.00,,---,0.00,VWS V14.00,2013-04-04 20:42:00,
2013-04-04 15:43:00,73.0,19.3,29.99,NNW,336,7.0,13.0,13,0.00,,---,0.00,VWS V14.00,2013-04-04 20:43:00,
2013-04-04 15:45:00,73.3,19.5,29.99,NNW,336,0.0,13.0,13,0.00,,---,0.00,VWS V14.00,2013-04-04 20:45:00,
2013-04-04 15:47:00,73.3,22.9,29.99,NNW,340,0.0,13.0,15,0.00,,---,0.00,VWS V14.00,2013-04-04 20:47:00,
2013-04-04 15:48:00,73.7,24.8,29.99,NNE,31,0.0,13.0,16,0.00,,---,0.00,VWS V14.00,2013-04-04 20:48:00,
2013-04-04 15:50:00,73.5,24.6,29.99,NNE,31,0.0,13.0,16,0.00,,---,0.00,VWS V14.00,2013-04-04 20:50:00,
2013-04-04 15:52:00,73.5,15.8,29.99,NW,306,0.0,13.0,11,0.00,,---,0.00,VWS V14.00,2013-04-04 20:52:00,
2013-04-04 15:53:00,73.7,18.0,29.99,NW,309,0.0,13.0,12,0.00,,---,0.00,VWS V14.00,2013-04-04 20:53:00,
2013-04-04 15:55:00,73.9,21.7,29.99,NW,320,0.0,13.0,14,0.00,,---,0.00,VWS V14.00,2013-04-04 20:55:00,
2013-04-04 15:57:00,73.9,23.4,29.99,NNE,17,0.0,13.0,15,0.00,,---,0.00,VWS V14.00,2013-04-04 20:57:00,
2013-04-04 15:58:00,73.7,21.6,29.99,NNE,17,8.0,13.0,14,0.00,,---,0.00,VWS V14.00,2013-04-04 20:58:00,
2013-04-04 16:00:00,73.7,21.6,29.98,NNE,20,8.0,17.0,14,0.00,,---,0.00,VWS V14.00,2013-04-04 21:00:00,
2013-04-04 16:02:00,73.3,22.9,29.98,NE,34,0.0,17.0,15,0.00,,---,0.00,VWS V14.00,2013-04-04 21:02:00,
2013-04-04 16:03:00,73.3,22.9,29.98,NE,34,0.0,17.0,15,0.00,,---,0.00,VWS V14.00,2013-04-04 21:03:00,
2013-04-04 16:05:00,72.8,22.5,29.98,NE,52,6.0,17.0,15,0.00,,---,0.00,VWS V14.00,2013-04-04 21:05:00,
2013-04-04 16:07:00,73.0,22.7,29.98,NE,51,0.0,17.0,15,0.00,,---,0.00,VWS V14.00,2013-04-04 21:07:00,
2013-04-04 16:08:00,73.5,23.1,29.98,NE,52,0.0,17.0,15,0.00,,---,0.00,VWS V14.00,2013-04-04 21:08:00,
2013-04-04 16:10:00,72.8,22.5,29.98,NE,49,10.0,17.0,15,0.00,,---,0.00,VWS V14.00,2013-04-04 21:10:00,
2013-04-04 16:12:00,72.8,25.5,29.98,NE,56,8.0,17.0,17,0.00,,---,0.00,VWS V14.00,2013-04-04 21:12:00,
2013-04-04 16:13:00,72.7,25.4,29.98,NE,54,9.0,17.0,17,0.00,,---,0.00,VWS V14.00,2013-04-04 21:13:00,
2013-04-04 16:14:00,72.7,25.4,29.98,NE,54,0.0,17.0,17,0.00,,---,0.00,VWS V14.00,2013-04-04 21:14:00,
2013-04-04 16:15:00,72.5,22.3,29.98,NE,34,6.0,17.0,15,0.00,,---,0.00,VWS V14.00,2013-04-04 21:15:00,
2013-04-04 16:17:00,72.7,22.4,29.98,NE,37,5.0,17.0,15,0.00,,---,0.00,VWS V14.00,2013-04-04 21:17:00,
2013-04-04 16:19:00,73.3,24.4,29.98,NE,42,0.0,17.0,16,0.00,,---,0.00,VWS V14.00,2013-04-04 21:19:00,
2013-04-04 16:20:00,72.7,24.0,29.98,East,85,0.0,17.0,16,0.00,,---,0.00,VWS V14.00,2013-04-04 21:20:00,
2013-04-04 16:22:00,72.5,22.3,29.98,East,89,0.0,17.0,15,0.00,,---,0.00,VWS V14.00,2013-04-04 21:22:00,
2013-04-04 16:24:00,72.8,22.5,29.98,East,92,5.0,17.0,15,0.00,,---,0.00,VWS V14.00,2013-04-04 21:24:00,
2013-04-04 16:26:00,72.8,22.5,29.98,East,93,4.0,17.0,15,0.00,,---,0.00,VWS V14.00,2013-04-04 21:26:00,
2013-04-04 16:29:00,73.3,22.9,29.98,NE,54,0.0,0.0,15,0.00,,---,0.00,VWS V14.00,2013-04-04 21:29:00,
2013-04-04 16:30:00,73.3,22.9,29.98,NE,54,6.0,8.0,15,0.00,,---,0.00,VWS V14.00,2013-04-04 21:30:00,
2013-04-04 16:31:00,72.8,22.5,29.98,NE,49,6.0,8.0,15,0.00,,---,0.00,VWS V14.00,2013-04-04 21:31:00,
2013-04-04 16:34:00,72.7,22.4,29.98,ENE,76,6.0,8.0,15,0.00,,---,0.00,VWS V14.00,2013-04-04 21:34:00,
2013-04-04 16:35:00,72.5,22.3,29.98,ENE,76,0.0,8.0,15,0.00,,---,0.00,VWS V14.00,2013-04-04 21:35:00,
2013-04-04 16:36:00,72.7,22.4,29.98,ENE,76,0.0,8.0,15,0.00,,---,0.00,VWS V14.00,2013-04-04 21:36:00,
2013-04-04 16:39:00,73.2,22.8,29.98,ENE,76,0.0,8.0,15,0.00,,---,0.00,VWS V14.00,2013-04-04 21:39:00,
2013-04-04 16:40:00,73.3,22.9,29.98,East,79,5.0,8.0,15,0.00,,---,0.00,VWS V14.00,2013-04-04 21:40:00,
2013-04-04 16:42:00,72.7,22.4,29.98,East,79,0.0,8.0,15,0.00,,---,0.00,VWS V14.00,2013-04-04 21:42:00,
2013-04-04 16:44:00,73.0,22.7,29.98,East,79,0.0,8.0,15,0.00,,---,0.00,VWS V14.00,2013-04-04 21:44:00,
2013-04-04 16:45:00,73.0,21.0,29.98,East,79,0.0,8.0,14,0.00,,---,0.00,VWS V14.00,2013-04-04 21:45:00,
2013-04-04 16:47:00,73.0,22.7,29.98,East,79,0.0,8.0,15,0.00,,---,0.00,VWS V14.00,2013-04-04 21:47:00,
2013-04-04 16:50:00,73.2,22.8,29.98,ENE,78,0.0,8.0,15,0.00,,---,0.00,VWS V14.00,2013-04-04 21:50:00,
2013-04-04 16:53:00,72.8,24.0,29.98,NE,56,1.0,9.0,16,0.00,,---,0.00,VWS V14.00,2013-04-04 21:53:00,
2013-04-04 16:55:00,72.5,23.8,29.98,NE,56,0.0,9.0,16,0.00,,---,0.00,VWS V14.00,2013-04-04 21:55:00,
2013-04-04 16:56:00,72.8,24.0,29.98,NE,54,2.0,9.0,16,0.00,,---,0.00,VWS V14.00,2013-04-04 21:56:00,
2013-04-04 16:58:00,72.8,22.5,29.98,NE,51,4.0,9.0,15,0.00,,---,0.00,VWS V14.00,2013-04-04 21:58:00,
2013-04-04 17:00:00,72.7,22.4,29.98,ENE,62,1.0,11.0,15,0.00,,---,0.00,VWS V14.00,2013-04-04 22:00:00,
2013-04-04 17:04:00,72.8,24.0,29.98,East,90,3.0,11.0,16,0.00,,---,0.00,VWS V14.00,2013-04-04 22:04:00,
2013-04-04 17:05:00,73.2,24.4,29.98,East,86,0.0,11.0,16,0.00,,---,0.00,VWS V14.00,2013-04-04 22:05:00,
2013-04-04 17:06:00,73.3,24.4,29.98,East,86,0.0,11.0,16,0.00,,---,0.00,VWS V14.00,2013-04-04 22:06:00,
2013-04-04 17:09:00,73.2,22.8,29.98,ENE,78,0.0,11.0,15,0.00,,---,0.00,VWS V14.00,2013-04-04 22:09:00,
2013-04-04 17:10:00,73.3,22.9,29.98,ENE,78,0.0,11.0,15,0.00,,---,0.00,VWS V14.00,2013-04-04 22:10:00,
2013-04-04 17:11:00,73.3,22.9,29.98,ENE,78,0.0,11.0,15,0.00,,---,0.00,VWS V14.00,2013-04-04 22:11:00,
2013-04-04 17:15:00,73.2,22.8,29.98,NE,44,0.0,11.0,15,0.00,,---,0.00,VWS V14.00,2013-04-04 22:15:00,
2013-04-04 17:16:00,73.3,22.9,29.98,NE,44,0.0,11.0,15,0.00,,---,0.00,VWS V14.00,2013-04-04 22:16:00,
2013-04-04 17:20:00,72.8,22.5,29.98,NE,35,7.0,11.0,15,0.00,,---,0.00,VWS V14.00,2013-04-04 22:20:00,
2013-04-04 17:21:00,72.7,22.4,29.98,NE,45,3.0,12.0,15,0.00,,---,0.00,VWS V14.00,2013-04-04 22:21:00,
2013-04-04 17:22:00,72.8,22.5,29.98,NE,47,8.0,12.0,15,0.00,,---,0.00,VWS V14.00,2013-04-04 22:22:00,
2013-04-04 17:25:00,72.7,22.4,29.98,ENE,61,1.0,12.0,15,0.00,,---,0.00,VWS V14.00,2013-04-04 22:25:00,
2013-04-04 17:27:00,72.3,22.1,29.98,ENE,62,0.0,12.0,15,0.00,,---,0.00,VWS V14.00,2013-04-04 22:27:00,
2013-04-04 17:31:00,72.5,22.3,29.99,ENE,66,2.0,7.0,15,0.00,,---,0.00,VWS V14.00,2013-04-04 22:31:00,
2013-04-04 17:32:00,72.7,22.4,29.99,ENE,66,0.0,7.0,15,0.00,,---,0.00,VWS V14.00,2013-04-04 22:32:00,
2013-04-04 17:33:00,73.0,22.7,29.99,ENE,66,0.0,7.0,15,0.00,,---,0.00,VWS V14.00,2013-04-04 22:33:00,
2013-04-04 17:36:00,72.5,22.3,29.99,East,89,3.0,12.0,15,0.00,,---,0.00,VWS V14.00,2013-04-04 22:36:00,
2013-04-04 17:37:00,72.1,21.9,29.99,ESE,107,6.0,12.0,15,0.00,,---,0.00,VWS V14.00,2013-04-04 22:37:00,
2013-04-04 17:38:00,72.0,21.9,29.99,ESE,112,5.0,12.0,15,0.00,,---,0.00,VWS V14.00,2013-04-04 22:38:00,
2013-04-04 17:41:00,71.5,21.5,29.99,ESE,121,3.0,13.0,15,0.00,,---,0.00,VWS V14.00,2013-04-04 22:41:00,
2013-04-04 17:42:00,71.6,23.1,29.99,SSE,150,7.0,13.0,16,0.00,,---,0.00,VWS V14.00,2013-04-04 22:42:00,
2013-04-04 17:43:00,71.6,21.5,29.99,East,100,3.0,13.0,15,0.00,,---,0.00,VWS V14.00,2013-04-04 22:43:00,
2013-04-04 17:46:00,71.8,23.2,29.99,ESE,116,1.0,13.0,16,0.00,,---,0.00,VWS V14.00,2013-04-04 22:46:00,
2013-04-04 17:47:00,71.8,23.2,29.99,ESE,116,1.0,13.0,16,0.00,,---,0.00,VWS V14.00,2013-04-04 22:47:00,
2013-04-04 17:48:00,71.6,23.1,29.99,ESE,116,0.0,13.0,16,0.00,,---,0.00,VWS V14.00,2013-04-04 22:48:00,
2013-04-04 17:52:00,71.6,23.1,29.99,ESE,102,2.0,13.0,16,0.00,,---,0.00,VWS V14.00,2013-04-04 22:52:00,
2013-04-04 17:53:00,72.0,23.4,29.99,East,100,0.0,13.0,16,0.00,,---,0.00,VWS V14.00,2013-04-04 22:53:00,
2013-04-04 17:57:00,71.6,21.5,29.99,NNE,31,1.0,13.0,15,0.00,,---,0.00,VWS V14.00,2013-04-04 22:57:00,
2013-04-04 17:58:00,71.6,21.5,29.99,NNE,28,6.0,13.0,15,0.00,,---,0.00,VWS V14.00,2013-04-04 22:58:00,
2013-04-04 18:02:00,71.3,21.3,29.99,NNE,18,7.0,13.0,15,0.00,,---,0.00,VWS V14.00,2013-04-04 23:02:00,
2013-04-04 18:03:00,71.3,21.3,29.99,NNE,25,7.0,13.0,15,0.00,,---,0.00,VWS V14.00,2013-04-04 23:03:00,
2013-04-04 18:04:00,71.3,22.8,29.99,NNE,25,9.0,13.0,16,0.00,,---,0.00,VWS V14.00,2013-04-04 23:04:00,
2013-04-04 18:07:00,70.6,20.7,29.99,NNE,24,7.0,13.0,15,0.00,,---,0.00,VWS V14.00,2013-04-04 23:07:00,
2013-04-04 18:08:00,70.4,23.5,29.99,NNE,24,3.0,13.0,17,0.00,,---,0.00,VWS V14.00,2013-04-04 23:08:00,
2013-04-04 18:09:00,70.4,22.1,29.99,NNE,24,7.0,13.0,16,0.00,,---,0.00,VWS V14.00,2013-04-04 23:09:00,
2013-04-04 18:12:00,70.8,22.4,29.99,NNE,23,9.0,13.0,16,0.00,,---,0.00,VWS V14.00,2013-04-04 23:12:00,
2013-04-04 18:13:00,70.8,22.4,30.00,NNE,23,8.0,13.0,16,0.00,,---,0.00,VWS V14.00,2013-04-04 23:13:00,
2013-04-04 18:14:00,70.8,22.4,30.00,NNE,23,0.0,13.0,16,0.00,,---,0.00,VWS V14.00,2013-04-04 23:14:00,
2013-04-04 18:17:00,70.9,22.5,30.00,NNE,24,0.0,13.0,16,0.00,,---,0.00,VWS V14.00,2013-04-04 23:17:00,
2013-04-04 18:18:00,70.9,22.5,30.00,NNE,24,0.0,13.0,16,0.00,,---,0.00,VWS V14.00,2013-04-04 23:18:00,
2013-04-04 18:19:00,70.9,22.5,30.00,NNE,24,0.0,13.0,16,0.00,,---,0.00,VWS V14.00,2013-04-04 23:19:00,
2013-04-04 18:23:00,70.9,22.5,30.00,NNE,23,6.0,13.0,16,0.00,,---,0.00,VWS V14.00,2013-04-04 23:23:00,
2013-04-04 18:24:00,70.6,22.3,30.00,NNE,18,7.0,13.0,16,0.00,,---,0.00,VWS V14.00,2013-04-04 23:24:00,
2013-04-04 18:28:00,70.8,20.9,30.00,North,1,11.0,13.0,15,0.00,,---,0.00,VWS V14.00,2013-04-04 23:28:00,
2013-04-04 18:29:00,70.4,20.6,30.00,North,1,7.0,13.0,15,0.00,,---,0.00,VWS V14.00,2013-04-04 23:29:00,
2013-04-04 18:33:00,70.1,21.9,30.00,North,10,5.0,10.0,16,0.00,,---,0.00,VWS V14.00,2013-04-04 23:33:00,
2013-04-04 18:34:00,70.3,22.0,30.00,North,10,0.0,10.0,16,0.00,,---,0.00,VWS V14.00,2013-04-04 23:34:00,
2013-04-04 18:35:00,70.3,22.0,30.00,North,10,0.0,10.0,16,0.00,,---,0.00,VWS V14.00,2013-04-04 23:35:00,
2013-04-04 18:38:00,70.3,22.0,30.00,North,10,0.0,10.0,16,0.00,,---,0.00,VWS V14.00,2013-04-04 23:38:00,
2013-04-04 18:39:00,70.3,22.0,30.00,North,10,0.0,10.0,16,0.00,,---,0.00,VWS V14.00,2013-04-04 23:39:00,
2013-04-04 18:40:00,70.4,22.1,30.00,North,10,0.0,10.0,16,0.00,,---,0.00,VWS V14.00,2013-04-04 23:40:00,
2013-04-04 18:43:00,70.3,22.0,30.00,North,10,0.0,10.0,16,0.00,,---,0.00,VWS V14.00,2013-04-04 23:43:00,
2013-04-04 18:44:00,70.3,22.0,30.00,North,10,0.0,10.0,16,0.00,,---,0.00,VWS V14.00,2013-04-04 23:44:00,
2013-04-04 18:45:00,70.3,22.0,30.00,North,10,0.0,10.0,16,0.00,,---,0.00,VWS V14.00,2013-04-04 23:45:00,
2013-04-04 18:49:00,70.3,22.0,30.00,North,10,0.0,10.0,16,0.00,,---,0.00,VWS V14.00,2013-04-04 23:49:00,
2013-04-04 18:50:00,70.3,22.0,30.00,North,10,0.0,10.0,16,0.00,,---,0.00,VWS V14.00,2013-04-04 23:50:00,
2013-04-04 18:54:00,70.1,21.9,30.00,NNE,16,0.0,10.0,16,0.00,,---,0.00,VWS V14.00,2013-04-04 23:54:00,
2013-04-04 18:55:00,70.1,23.3,30.00,NNE,16,0.0,10.0,17,0.00,,---,0.00,VWS V14.00,2013-04-04 23:55:00,
2013-04-04 18:59:00,69.8,23.1,30.00,NNE,18,0.0,3.0,17,0.00,,---,0.00,VWS V14.00,2013-04-04 23:59:00,
2013-04-04 19:00:00,69.8,23.1,30.00,NNE,18,0.0,3.0,17,0.00,,---,0.00,VWS V14.00,2013-04-05 00:00:00,
2013-04-04 19:01:00,69.6,22.9,30.00,East,89,1.0,13.0,17,0.00,,---,0.00,VWS V14.00,2013-04-05 00:01:00,
2013-04-04 19:04:00,69.3,22.6,30.00,East,90,0.0,13.0,17,0.00,,---,0.00,VWS V14.00,2013-04-05 00:04:00,
2013-04-04 19:05:00,69.3,22.6,30.00,East,83,4.0,13.0,17,0.00,,---,0.00,VWS V14.00,2013-04-05 00:05:00,
2013-04-04 19:06:00,69.1,22.5,30.00,East,82,5.0,13.0,17,0.00,,---,0.00,VWS V14.00,2013-04-05 00:06:00,
2013-04-04 19:09:00,68.9,22.3,30.00,East,80,0.0,13.0,17,0.00,,---,0.00,VWS V14.00,2013-04-05 00:09:00,
2013-04-04 19:10:00,68.9,22.3,30.00,East,80,0.0,13.0,17,0.00,,---,0.00,VWS V14.00,2013-04-05 00:10:00,
2013-04-04 19:12:00,68.6,22.1,30.00,NE,54,0.0,13.0,17,0.00,,---,0.00,VWS V14.00,2013-04-05 00:12:00,
2013-04-04 19:14:00,68.4,21.9,30.02,NE,55,0.0,13.0,17,0.00,,---,0.00,VWS V14.00,2013-04-05 00:14:00,
2013-04-04 19:15:00,68.4,21.9,30.02,NE,55,0.0,13.0,17,0.00,,---,0.00,VWS V14.00,2013-04-05 00:15:00,
2013-04-04 19:16:00,68.3,21.8,30.02,NE,55,0.0,13.0,17,0.00,,---,0.00,VWS V14.00,2013-04-05 00:16:00,
2013-04-04 19:17:00,68.1,23.0,30.02,NE,56,3.0,13.0,18,0.00,,---,0.00,VWS V14.00,2013-04-05 00:17:00,
2013-04-04 19:20:00,67.9,22.9,30.02,NE,56,0.0,13.0,18,0.00,,---,0.00,VWS V14.00,2013-04-05 00:20:00,
2013-04-04 19:21:00,67.9,22.9,30.02,NE,52,0.0,13.0,18,0.00,,---,0.00,VWS V14.00,2013-04-05 00:21:00,
2013-04-04 19:22:00,67.8,22.8,30.02,NE,54,0.0,13.0,18,0.00,,---,0.00,VWS V14.00,2013-04-05 00:22:00,
2013-04-04 19:25:00,67.6,22.6,30.02,NE,54,0.0,13.0,18,0.00,,---,0.00,VWS V14.00,2013-04-05 00:25:00,
2013-04-04 19:26:00,67.6,22.6,30.02,ENE,68,0.0,13.0,18,0.00,,---,0.00,VWS V14.00,2013-04-05 00:26:00,
2013-04-04 19:28:00,67.4,21.1,30.02,ENE,68,0.0,13.0,17,0.00,,---,0.00,VWS V14.00,2013-04-05 00:28:00,
2013-04-04 19:30:00,67.1,22.2,30.03,ENE,75,8.0,8.0,18,0.00,,---,0.00,VWS V14.00,2013-04-05 00:30:00,
2013-04-04 19:31:00,66.9,22.0,30.03,ENE,76,2.0,8.0,18,0.00,,---,0.00,VWS V14.00,2013-04-05 00:31:00,
2013-04-04 19:33:00,66.6,21.8,30.03,ENE,76,0.0,8.0,18,0.00,,---,0.00,VWS V14.00,2013-04-05 00:33:00,
2013-04-04 19:35:00,66.3,22.8,30.03,ENE,76,0.0,8.0,19,0.00,,---,0.00,VWS V14.00,2013-04-05 00:35:00,
2013-04-04 19:36:00,66.1,22.7,30.03,ENE,76,0.0,8.0,19,0.00,,---,0.00,VWS V14.00,2013-04-05 00:36:00,
2013-04-04 19:38:00,65.8,22.4,30.03,ENE,76,0.0,8.0,19,0.00,,---,0.00,VWS V14.00,2013-04-05 00:38:00,
2013-04-04 19:40:00,65.6,22.3,30.03,ENE,76,0.0,8.0,19,0.00,,---,0.00,VWS V14.00,2013-04-05 00:40:00,
2013-04-04 19:41:00,65.5,22.2,30.03,ENE,76,0.0,8.0,19,0.00,,---,0.00,VWS V14.00,2013-04-05 00:41:00,
2013-04-04 19:42:00,65.3,22.0,30.03,ENE,76,0.0,8.0,19,0.00,,---,0.00,VWS V14.00,2013-04-05 00:42:00,
2013-04-04 19:43:00,65.3,22.0,30.05,ENE,76,0.0,8.0,19,0.00,,---,0.00,VWS V14.00,2013-04-05 00:43:00,
2013-04-04 19:45:00,65.0,21.8,30.05,ENE,76,0.0,8.0,19,0.00,,---,0.00,VWS V14.00,2013-04-05 00:45:00,
2013-04-04 19:46:00,65.0,21.8,30.05,ENE,76,0.0,8.0,19,0.00,,---,0.00,VWS V14.00,2013-04-05 00:46:00,
2013-04-04 19:47:00,64.8,21.6,30.05,ENE,76,0.0,8.0,19,0.00,,---,0.00,VWS V14.00,2013-04-05 00:47:00,
2013-04-04 19:48:00,64.8,22.8,30.05,ENE,76,0.0,8.0,20,0.00,,---,0.00,VWS V14.00,2013-04-05 00:48:00,
2013-04-04 19:51:00,64.5,22.6,30.05,ENE,76,0.0,8.0,20,0.00,,---,0.00,VWS V14.00,2013-04-05 00:51:00,
2013-04-04 19:52:00,64.5,22.6,30.05,ENE,76,0.0,8.0,20,0.00,,---,0.00,VWS V14.00,2013-04-05 00:52:00,
2013-04-04 19:53:00,64.5,22.6,30.05,ENE,76,0.0,8.0,20,0.00,,---,0.00,VWS V14.00,2013-04-05 00:53:00,
2013-04-04 19:56:00,64.2,22.3,30.05,ENE,76,0.0,8.0,20,0.00,,---,0.00,VWS V14.00,2013-04-05 00:56:00,
2013-04-04 19:57:00,64.2,22.3,30.05,ENE,76,0.0,8.0,20,0.00,,---,0.00,VWS V14.00,2013-04-05 00:57:00,
2013-04-04 19:59:00,63.9,22.1,30.05,ENE,76,0.0,0.0,20,0.00,,---,0.00,VWS V14.00,2013-04-05 00:59:00,
2013-04-04 20:01:00,63.9,22.1,30.05,ENE,76,0.0,0.0,20,0.00,,---,0.00,VWS V14.00,2013-04-05 01:01:00,
2013-04-04 20:02:00,63.7,21.9,30.05,ENE,76,0.0,0.0,20,0.00,,---,0.00,VWS V14.00,2013-04-05 01:02:00,
2013-04-04 20:05:00,63.2,21.5,30.05,ENE,76,0.0,0.0,20,0.00,,---,0.00,VWS V14.00,2013-04-05 01:05:00,
2013-04-04 20:07:00,63.1,22.6,30.05,ENE,76,0.0,0.0,21,0.00,,---,0.00,VWS V14.00,2013-04-05 01:07:00,
2013-04-04 20:10:00,62.7,22.2,30.05,ENE,76,0.0,0.0,21,0.00,,---,0.00,VWS V14.00,2013-04-05 01:10:00,
2013-04-04 20:12:00,62.6,22.1,30.05,ENE,76,0.0,0.0,21,0.00,,---,0.00,VWS V14.00,2013-04-05 01:12:00,
2013-04-04 20:13:00,62.6,22.1,30.05,ENE,76,0.0,0.0,21,0.00,,---,0.00,VWS V14.00,2013-04-05 01:13:00,
2013-04-04 20:15:00,62.3,21.9,29.99,ENE,76,0.0,0.0,21,0.00,,---,0.00,VWS V14.00,2013-04-05 01:15:00,
2013-04-04 20:17:00,62.1,21.7,29.99,ENE,76,0.0,0.0,21,0.00,,---,0.00,VWS V14.00,2013-04-05 01:17:00,
2013-04-04 20:18:00,62.1,21.7,29.99,ENE,76,0.0,0.0,21,0.00,,---,0.00,VWS V14.00,2013-04-05 01:18:00,
2013-04-04 20:21:00,61.5,21.2,29.99,ENE,76,0.0,0.0,21,0.00,,---,0.00,VWS V14.00,2013-04-05 01:21:00,
2013-04-04 20:23:00,61.0,21.9,29.99,ENE,76,0.0,0.0,22,0.00,,---,0.00,VWS V14.00,2013-04-05 01:23:00,
2013-04-04 20:27:00,59.9,21.0,29.99,ENE,76,0.0,0.0,22,0.00,,---,0.00,VWS V14.00,2013-04-05 01:27:00,
2013-04-04 20:28:00,59.8,20.9,29.99,ENE,76,0.0,0.0,22,0.00,,---,0.00,VWS V14.00,2013-04-05 01:28:00,
2013-04-04 20:32:00,59.3,21.5,30.01,ENE,76,0.0,0.0,23,0.00,,---,0.00,VWS V14.00,2013-04-05 01:32:00,
2013-04-04 20:33:00,59.0,21.3,30.01,ENE,76,0.0,0.0,23,0.00,,---,0.00,VWS V14.00,2013-04-05 01:33:00,
2013-04-04 20:37:00,58.1,20.5,30.01,ENE,76,0.0,0.0,23,0.00,,---,0.00,VWS V14.00,2013-04-05 01:37:00,
2013-04-04 20:38:00,57.8,21.3,30.01,ENE,76,0.0,0.0,24,0.00,,---,0.00,VWS V14.00,2013-04-05 01:38:00,
2013-04-04 20:39:00,57.6,21.1,30.01,ENE,76,0.0,0.0,24,0.00,,---,0.00,VWS V14.00,2013-04-05 01:39:00,
2013-04-04 20:42:00,57.5,21.0,30.01,ENE,76,0.0,0.0,24,0.00,,---,0.00,VWS V14.00,2013-04-05 01:42:00,
2013-04-04 20:43:00,57.3,21.8,30.03,ENE,76,0.0,0.0,25,0.00,,---,0.00,VWS V14.00,2013-04-05 01:43:00,
2013-04-04 20:44:00,57.3,21.8,30.03,ENE,76,0.0,0.0,25,0.00,,---,0.00,VWS V14.00,2013-04-05 01:44:00,
2013-04-04 20:48:00,56.6,22.1,30.03,ENE,76,0.0,0.0,26,0.00,,---,0.00,VWS V14.00,2013-04-05 01:48:00,
2013-04-04 20:49:00,56.5,22.0,30.03,ENE,76,0.0,0.0,26,0.00,,---,0.00,VWS V14.00,2013-04-05 01:49:00,
2013-04-04 20:54:00,55.9,21.5,30.03,ENE,76,0.0,0.0,26,0.00,,---,0.00,VWS V14.00,2013-04-05 01:54:00,
2013-04-04 20:59:00,55.4,21.1,30.05,ENE,76,0.0,0.0,26,0.00,,---,0.00,VWS V14.00,2013-04-05 01:59:00,